Regional Weather Roundup
Issued by NWS Jackson, KY

Home | Current Version | Previous Version | Text Only | Print | Product List | Glossary On
Versions: 1 2 3 4 5 6 7 8 9 10 11 12 13 14 15 16 17 18 19 20 21 22 23 24 25 26 27
000
ASUS43 KJKL 251810
RWRJKL

EAST KENTUCKY HOURLY WEATHER ROUNDUP
NATIONAL WEATHER SERVICE JACKSON KY
200 PM EDT TUE APR 25 2017

NOTE: "FAIR" INDICATES FEW OR NO CLOUDS BELOW 12,000 FEET WITH
NO SIGNIFICANT WEATHER AND/OR OBSTRUCTIONS TO VISIBILITY.

* THESE REPORTS ARE NOT UNDER NWS QUALITY CONTROL AND MAY NOT
  REPORT WEATHER SUCH AS PRECIPITATION AND FOG.

KYZ079-080-083-085-087-088-110-112-115-119-120-251900
...EASTERN KENTUCKY...

CITY           SKY/WX    TMP DP  RH WIND       PRES   REMARKS
JACKSON        CLOUDY    68  55  63 CALM      29.77F
6HR MIN TEMP:  53; 6HR MAX TEMP:  69;

LONDON         SUNNY     69  53  56 CALM      29.77F
6HR MIN TEMP:  52; 6HR MAX TEMP:  70;

SOMERSET*      CLOUDY    68  52  56 CALM      29.78F
MONTICELLO*    CLOUDY    68  54  60 VRB5      29.79F
6HR MIN TEMP:  53; 6HR MAX TEMP:  69;

WILLIAMSBURG*  CLOUDY    68  55  64 NW5       29.78F
MIDDLESBORO*   CLOUDY    70  55  59 E3        29.77S
6HR MIN TEMP:  53; 6HR MAX TEMP:  70;

HARLAN APT*    CLOUDY    68  52  56 S3        29.77F
PIKE CO APT*   CLOUDY    64  56  74 CALM      29.78F
BIG SANDY APT* CLOUDY    67  56  66 CALM      29.78S
6HR MIN TEMP:  53; 6HR MAX TEMP:  68;

MOREHEAD APT*  PTCLDY    72  54  53 SW8G15    29.77F
$$

KYZ035-036-041-042-044-050-067-078-099-251900
...CENTRAL KENTUCKY...

CITY           SKY/WX    TMP DP  RH WIND       PRES   REMARKS
MT STERLING*   MOSUNNY   70  55  60 S3        29.78S
FLEMING/MASON* MOSUNNY   71  55  56 SW5       29.76F
DANVILLE*      PTSUNNY   66  54  63 CALM      29.78F
LEXINGTON      MOSUNNY   69  54  58 SW5       29.77F
6HR MIN TEMP:  55; 6HR MAX TEMP:  70;

FRANKFORT      PTSUNNY   71  54  54 VRB5      29.76F
6HR MIN TEMP:  55; 6HR MAX TEMP:  72;

LOUISVILLE     PTSUNNY   72  55  55 E6        29.75F
6HR MIN TEMP:  58; 6HR MAX TEMP:  73;

LEBANON*       CLOUDY    68  55  64 CALM      29.77F
GLASGOW*       CLOUDY    71  54  54 CALM      29.76F
BOWLING GREEN  MOSUNNY   73  57  57 S5        29.76F
6HR MIN TEMP:  55; 6HR MAX TEMP:  74;

$$

KYZ091>093-OHZ055-061-077-WVZ005-015-034-035-042-251900
...SOUTHERN OHIO/WEST VIRGINIA...

CITY           SKY/WX    TMP DP  RH WIND       PRES   REMARKS
COVINGTON      PTSUNNY   71  56  58 CALM      29.75F
COLUMBUS       MOSUNNY   73  54  51 SE3G17    29.77F
DAYTON         PTSUNNY   72  54  53 S9G17     29.76F
WILMINGTON     MOSUNNY   70  57  63 SE7       29.76F
HUNTINGTON     PTSUNNY   68  55  63 NE8       29.77F
CHARLESTON     CLOUDY    62  55  77 N3        29.78F
PINEVILLE*     CLOUDY    67  55  66 MISG      29.81F
BECKLEY        CLOUDY    64  53  67 N5        29.77F
BLUEFIELD      CLOUDY    59  52  77 N6        29.79F
LOGAN CO APT*  CLOUDY    59  55  88 CALM      29.79F
$$

VAZ002-007-008-TNZ017-027-036-066-071-251900
...SOUTHWEST VIRGINIA/EAST TENNESSEE...

CITY           SKY/WX    TMP DP  RH WIND       PRES   REMARKS
WISE*          PTSUNNY   64  54  68 NW5       29.81S
JONESVILLE*    CLOUDY    66  55  68 S5        29.79
ABINGDON*      CLOUDY    64  58  81 W5        29.78F
BRISTOL        CLOUDY    63  54  72 SW9       29.78F
KNOXVILLE      CLOUDY    68  54  60 N3        29.77F
LAFOLLETTE*    CLOUDY    66  57  72 CALM      29.80F
OAK RIDGE      CLOUDY    70  54  56 VRB5      29.78F
CROSSVILLE     CLOUDY    68  53  58 NW3       29.80F
NASHVILLE      PTSUNNY   74  57  55 E9        29.78F
$$

...KEY TO REMARKS...
VSB - VISIBILITY IN MILES
WCI - WIND CHILL INDEX
HX  - HEAT INDEX

$$




USA.gov is the U.S. government's official web portal to all federal, state and local government web resources and services.